Location: Bellerive
(46.9237°N, 7.0223°E)
Time: 18:05:34
(UTC+00:00)

Cosmos 1980 Rocket - Pass Details

Date: 09 April 2020
Orbit: 828 x 850 km, 71.0° (Epoch: 28 May)

Event Time Altitude Azimuth Distance (km) Brightness Sun altitude
Rises 21:36:56 0° 333° (NNW) 3,389 6.5 -29.3°
Reaches altitude 10° 21:39:23 10° 334° (NNW) 2,454 5.5 -29.5°
Enters shadow 21:44:21 70° 343° (NNW) 890 2.3 -30.0°
